Flag for U.S.A. Weather past 2 weeks in Mason, Ohio, U.S.A.

Now
84 °F

Broken clouds.


Feels Like: 88 °F
Forecast: 67 / 84 °F
Wind: 3 mph from North

Location: Butler County Regional Airport

Current Time: Aug 30, 2015 at 3:03:14 PM

Latest Report: Aug 30, 2015 at 1:53 PM


Visibility: 10 mi

Pressure: 30.08 "Hg

Humidity: 63%

Dew point: 70 °F

Location of MasonLocation

Historic Weather in Mason — Graph

°F

Mason temperature yesterday

Maximum temperature yesterday: 86 °F (at 12:53 PM)
Minimum temperature yesterday: 59 °F (at 1:53 AM)
Average temperature yesterday: 73 °F

Past Weeks' High & Low Weather Summary

 TemperatureHumidityPressure
High89 °F (Aug 16, 4:53 PM)100% (Aug 18, 5:59 AM)30.21 "Hg (Aug 18, 5:59 AM)
Low51 °F (Aug 25, 6:53 AM)35% (Aug 21, 5:53 PM)29.78 "Hg (Aug 19, 4:53 PM)
Average70 °F76%30.05 "Hg
* Reported Aug 15 1:53 PM — Aug 30 1:53 PM, Mason, Weather by CustomWeather, © 2015

Note: Actual official high and low records may vary slightly from our data, if they occured in-between our weather recording intervals... More about our weather records

Advertising

Mason weather history for previous 24 hours

 ConditionsComfort  
Time TempWeatherWind HumidityBarometerVisibility
1:53 PM
Sun, Aug 30
84 °FBroken clouds.3 mph63%30.08 "Hg10 mi
12:53 PM83 °FSunny.3 mph65%30.09 "Hg10 mi
11:53 AM80 °FSunny.3 mph71%30.11 "Hg10 mi
10:53 AM79 °FSunny.3 mph72%30.11 "Hg10 mi
9:53 AM76 °FSunny.5 mph77%30.11 "Hg10 mi
8:53 AM73 °FSunny.3 mph84%30.10 "Hg10 mi
7:53 AM69 °FClear.No wind93%30.10 "Hg7 mi
6:53 AM68 °FFog.3 mph93%30.09 "Hg6 mi
5:53 AM68 °FClear.No wind93%30.07 "Hg8 mi
4:53 AM69 °FPassing clouds.3 mph93%30.06 "Hg9 mi
3:53 AM70 °FPassing clouds.No wind90%30.06 "Hg10 mi
2:53 AM72 °FPassing clouds.No wind84%30.06 "Hg10 mi
1:53 AM72 °FThundershowers. Passing clouds.5 mph84%30.07 "Hg10 mi
12:53 AM73 °FPassing clouds.No wind81%30.07 "Hg10 mi
11:53 PM
Sat, Aug 29
71 °FPassing clouds.No wind90%30.06 "Hg10 mi
10:53 PM71 °FPassing clouds.3 mph90%30.06 "Hg10 mi
9:53 PM72 °FPassing clouds.No wind87%30.06 "Hg10 mi
8:53 PM74 °FSunny.No wind82%30.05 "Hg10 mi
7:53 PM75 °FSunny.No wind82%30.04 "Hg10 mi
6:53 PM81 °FSunny.No wind69%30.03 "Hg10 mi
5:53 PM86 °FSunny.3 mph49%30.04 "Hg10 mi
4:53 PM86 °FSunny.6 mph51%30.05 "Hg10 mi
3:53 PM85 °FPassing clouds.6 mph55%30.06 "Hg10 mi
Weather by CustomWeather, © 2015

See weather overviewHow to use our weather pages